Погода в Апукаране

Бразилия     23°33′18″S   51°27′56″W
темп.,
°C
ветер,
м/с
пор.,
м/с
влажн.,
%
обл.,
%
осадки,
мм/ч
давл.,
гПа
погр.,
м
27 февраля, сб
сб2700:00+18вюв514930 0.0 1013588
03:00+17вюв414930 0.0 1013542
06:00+17вюв412950 0.0 1013425
09:00+21в610830 0.0 1015612
12:00+25в45704 0.1 10141087
15:00+25ююв237624 2.2 1011888
18:00+23юв36902 1.8 1010454
21:00+19вюв513941 2.7 1012522
28 февраля, вс
вс2800:00+18в516940 0.0 1013653
03:00+18в616930 0.0 1011628
06:00+17в514957 0.0 1012530
09:00+20всв6109136 0.0 1013593
12:00+24всв578066 0.4 1013912
15:00+25всв457863 2.9 1010902
18:00+23всв369051 2.8 1008446
21:00+20всв4119365 8.6 1010280
1 марта, пн
пн100:00+19всв51396100 5.9 1011412
03:00+19всв5129597 6.5 1010412
06:00+18всв5129664 0.0 1011352
09:00+21св6118832 0.0 1012654
12:00+25св57765 0.3 10111006
15:00+25ссв458213 4.1 1009838
18:00+23св369132 1.7 1008488
21:00+20всв389664 2.2 1010202
2 марта, вт
вт200:00+20всв4996100 2.3 1012255
03:00+20всв3796100 4.5 1011220
06:00+19всв389785 0.0 1012223
09:00+22св488886 0.0 1013483
12:00+25с468238 1.9 1012975
15:00+25ссв468337 6.8 1010947
18:00+24св2586100 1.0 1009173
21:00+22св2386100 1.1 101278
3 марта, ср
ср300:00+20всв3795100 3.8 1013154
03:00+19всв239678 4.6 101385
06:00+19всв389840 1.1 1014228
09:00+22св479469 1.7 1016378
12:00+26с457684 0.7 1014910
15:00+26ссз247882 3.1 10121089
18:00+25ссз1183100 0.9 101188
21:00+21всв2493100 4.9 101391